TimePST,TemperatureF,Dew PointF,Humidity,Sea Level PressureIn,VisibilityMPH,Wind Direction,Wind SpeedMPH,Gust SpeedMPH,PrecipitationIn,Events,Conditions,WindDirDegrees,DateUTC
12:00 AM,53.6,46.4,77,29.99,40.0,ESE,10.4,-,N/A,,Mostly Cloudy,110,2012-11-05 08:00:00
1:00 AM,51.8,46.4,82,30.01,40.0,NW,2.3,-,N/A,,Mostly Cloudy,310,2012-11-05 09:00:00
2:00 AM,53.6,46.4,77,30.04,40.0,South,5.8,-,N/A,,Mostly Cloudy,170,2012-11-05 10:00:00
3:00 AM,60.8,33.8,36,30.03,40.0,SW,21.9,31.1,N/A,,Mostly Cloudy,230,2012-11-05 11:00:00
4:00 AM,62,33,23,30.05,37,SW,15.0,,,,Overcast,230,2012-11-05 12:00:00
4:00 AM,62.6,33.8,34,30.05,40.0,WSW,12.7,23.0,N/A,,Overcast,240,2012-11-05 12:00:00
5:00 AM,60.8,33.8,36,30.07,40.0,WSW,4.6,-,N/A,,Overcast,240,2012-11-05 13:00:00
6:00 AM,59.0,32.0,36,30.10,40.0,SW,18.4,25.3,N/A,,Mostly Cloudy,220,2012-11-05 14:00:00
7:00 AM,57.2,32.0,38,30.14,40.0,Calm,Calm,-,N/A,,Mostly Cloudy,0,2012-11-05 15:00:00
8:00 AM,55.4,32.0,41,30.18,40.0,South,8.1,-,N/A,,Mostly Cloudy,190,2012-11-05 16:00:00
9:00 AM,55.4,33.8,44,30.22,40.0,ENE,5.8,-,N/A,,Mostly Cloudy,70,2012-11-05 17:00:00
10:00 AM,59,34,27,30.24,37,SE,3.5,,,,Scattered Clouds,130,2012-11-05 18:00:00
10:00 AM,59.0,33.8,39,30.24,40.0,SE,3.5,-,N/A,,Mostly Cloudy,130,2012-11-05 18:00:00
11:00 AM,60.8,33.8,36,30.24,40.0,SSE,3.5,-,N/A,,Mostly Cloudy,160,2012-11-05 19:00:00
12:00 PM,60.8,33.8,36,30.24,40.0,Calm,Calm,-,N/A,,Mostly Cloudy,0,2012-11-05 20:00:00
1:00 PM,59.0,33.8,39,30.25,40.0,East,8.1,-,N/A,,Mostly Cloudy,80,2012-11-05 21:00:00
2:00 PM,59.0,33.8,39,30.25,40.0,ESE,3.5,-,N/A,,Mostly Cloudy,110,2012-11-05 22:00:00
3:00 PM,59.0,33.8,39,30.25,40.0,SE,4.6,-,N/A,,Mostly Cloudy,140,2012-11-05 23:00:00
4:00 PM,57,35,31,30.24,37,SE,3.5,,,,Partly Cloudy,130,2012-11-06 00:00:00
4:00 PM,57.2,35.6,44,30.24,40.0,SE,3.5,-,N/A,,Mostly Cloudy,130,2012-11-06 00:00:00
5:00 PM,55.4,32.0,41,30.23,40.0,ENE,9.2,-,N/A,,Mostly Cloudy,60,2012-11-06 01:00:00
6:00 PM,53.6,33.8,47,30.25,40.0,ESE,4.6,-,N/A,,Mostly Cloudy,110,2012-11-06 02:00:00
7:00 PM,51.8,35.6,54,30.24,40.0,ESE,4.6,-,N/A,,Overcast,120,2012-11-06 03:00:00
8:00 PM,50.0,35.6,58,30.23,40.0,ESE,10.4,-,N/A,,Overcast,110,2012-11-06 04:00:00
9:00 PM,50.0,35.6,58,30.22,40.0,ESE,11.5,-,N/A,,Overcast,110,2012-11-06 05:00:00
10:00 PM,50,35,44,30.20,37,ESE,10.4,,,,Overcast,120,2012-11-06 06:00:00
10:00 PM,50.0,35.6,58,30.20,40.0,ESE,9.2,-,N/A,,Overcast,110,2012-11-06 06:00:00
11:00 PM,48.2,35.6,62,30.18,40.0,ESE,11.5,-,N/A,,Overcast,110,2012-11-06 07:00:00